DateTimeUTC,F1_A11,F1_S11,BsB_S11,BsG_S11,BsR_S11,BbsB_S11,BbsG_S11,BbsR_S11,BaB_A11,BaG_A11,BaR_A11,Tu_S11,T_S11,Uu_S11,U_S11,P_S11,T1_A11
2021-01-24T18:00:00Z,00000200,21000000,,,,,,,-000.63,-000.50,-000.40,16.2,22.7,,00.0,0648.4,30.8
2021-01-24T18:01:00Z,00000200,21000000,,,,,,,-000.29,-000.39,-000.26,16.2,22.7,,00.0,0648.4,30.8
2021-01-24T18:02:00Z,00000200,21000000,,,,,,,-000.46,-000.06,-000.24,16.2,22.7,,00.0,0648.4,30.9
2021-01-24T18:03:00Z,00000200,61000000,,,,,,,-000.12,-000.15,-000.45,16.2,22.7,,00.0,0648.4,30.9
2021-01-24T18:04:00Z,00000200,41000000,-000.18,0000.17,0000.28,0000.19,0000.00,0000.27,-000.18,0000.12,0000.08,16.4,22.6,,00.0,0649.3,30.9
2021-01-24T18:05:00Z,00000200,01000000,0000.88,0000.07,0000.12,0000.58,0000.28,-000.17,0000.08,-000.25,0000.21,16.5,22.6,,00.0,0649.4,30.8
2021-01-24T18:06:00Z,00000200,01000000,0001.06,0000.03,0000.18,0000.82,-000.16,-000.02,0000.27,0000.03,-000.16,16.4,22.5,,00.0,0649.4,30.8
2021-01-24T18:07:00Z,00000200,01000000,0000.08,0000.11,0000.09,0000.20,-000.12,0000.03,-000.14,-000.03,0000.13,16.3,22.5,,00.0,0649.4,30.8
2021-01-24T18:08:00Z,00000200,01000000,-000.34,0000.12,0000.11,0000.48,0000.14,0000.09,0000.05,0000.01,0000.25,16.2,22.5,,00.0,0649.4,30.8
2021-01-24T18:09:00Z,00000200,01000000,0000.32,0000.30,0000.11,0000.30,0000.10,0000.20,-000.06,0000.33,-000.15,16.2,22.5,,00.0,0649.4,30.8
2021-01-24T18:10:00Z,00000200,01000000,0000.17,0000.41,0000.45,0000.73,-000.11,0000.08,-000.18,-000.03,-000.13,16.1,22.4,,00.0,0649.5,30.9
2021-01-24T18:11:00Z,00000200,01000000,0000.79,0000.27,0000.08,0000.10,-000.08,0000.08,0000.26,-000.37,0000.08,16.0,22.4,,00.0,0649.4,30.8
2021-01-24T18:12:00Z,00000200,01000000,0000.33,0000.17,0000.26,0000.47,0000.03,0000.05,0000.06,-000.36,0000.03,16.0,22.4,,00.0,0649.4,30.8
2021-01-24T18:13:00Z,00000200,01000000,0000.01,0000.32,0000.29,0001.02,0000.06,-000.19,0000.23,0000.84,0000.33,16.0,22.4,,00.0,0649.4,30.8
2021-01-24T18:14:00Z,00000200,01000000,0000.47,0000.28,0000.12,0000.29,0000.00,-000.06,-000.23,-000.09,0000.04,16.0,22.3,,00.0,0649.4,30.8
2021-01-24T18:15:00Z,00000200,01000000,0000.93,0000.09,0000.35,0000.33,0000.22,-000.13,0000.36,-000.05,-000.13,16.1,22.4,,00.0,0649.4,30.8
2021-01-24T18:16:00Z,00000200,01000000,0000.70,0000.05,0000.20,0000.16,-000.15,-000.01,0000.04,0000.15,-000.18,16.1,22.4,,00.0,0649.4,30.8
2021-01-24T18:17:00Z,00000200,01000000,0000.75,0000.11,0000.33,0000.81,0000.03,-000.02,0000.18,-000.05,0000.44,16.1,22.4,,00.0,0649.4,30.8
2021-01-24T18:18:00Z,00000200,01000000,0000.23,0000.15,0000.11,0000.47,-000.16,-000.18,0000.42,0000.58,0000.21,16.2,22.4,,00.0,0649.4,30.8
2021-01-24T18:19:00Z,00000200,01000000,0000.55,0000.16,0000.34,0000.62,0000.16,0000.00,-000.03,0000.16,0000.19,16.2,22.4,,00.0,0649.4,30.8
2021-01-24T18:20:00Z,00000200,01000000,0000.47,0000.16,0000.17,0000.72,-000.03,0000.02,0000.60,-000.12,-000.12,16.2,22.4,,00.0,0649.4,30.8
2021-01-24T18:21:00Z,00000200,01000000,0000.45,0000.44,0000.14,0000.18,0000.04,-000.03,-000.16,0000.60,0000.35,16.1,22.4,,00.0,0649.4,30.8
2021-01-24T18:22:00Z,00000200,01000000,0000.44,0000.03,0000.33,0000.46,-000.06,-000.08,0000.34,-000.04,0000.13,16.1,22.4,,00.0,0649.4,30.8
2021-01-24T18:23:00Z,00000200,01000000,0000.13,0000.25,0000.08,0000.53,0000.20,-000.30,0000.11,-000.01,-000.18,16.0,22.4,,00.0,0649.4,30.8
2021-01-24T18:24:00Z,00000200,01000000,0000.51,0000.09,0000.03,0000.69,0000.03,-000.02,0000.17,0000.29,0000.16,16.0,22.4,,00.0,0649.4,30.8
2021-01-24T18:25:00Z,00000200,01000000,0000.56,0000.17,0000.20,0000.32,-000.06,0000.03,0000.10,0000.21,0000.22,15.9,22.3,,00.0,0649.4,30.8
2021-01-24T18:26:00Z,00000200,01000000,0000.16,0000.33,0000.24,0000.35,0000.12,-000.23,0000.10,-000.07,-000.02,15.9,22.3,,00.0,0649.4,30.8
2021-01-24T18:27:00Z,00000200,01000000,0000.32,0000.25,-000.01,0000.46,-000.06,-000.12,0000.26,0000.90,0000.34,15.9,22.3,,00.0,0649.3,30.8
2021-01-24T18:28:00Z,00000200,01000000,0000.01,0000.20,0000.19,0000.68,-000.08,-000.10,0000.28,-000.36,-000.03,15.9,22.3,,00.0,0649.3,30.8
2021-01-24T18:29:00Z,00000200,01000000,0000.44,0000.33,0000.12,0000.34,-000.06,0000.07,0000.25,0000.50,0000.12,16.0,22.3,,00.0,0649.3,30.8
2021-01-24T18:30:00Z,00000200,01000000,-000.10,0000.54,0000.14,0000.05,0000.10,-000.06,0000.04,-000.14,-000.23,16.0,22.4,,00.0,0649.3,30.8
2021-01-24T18:31:00Z,00000200,01000000,0000.45,0000.32,0000.27,0000.79,-000.03,-000.01,0000.31,0000.31,0000.90,16.1,22.4,,00.0,0649.4,30.9
2021-01-24T18:32:00Z,00000200,01000000,0000.53,0000.09,0000.44,0000.28,-000.04,0000.08,-000.08,0000.19,-000.39,16.1,22.4,,00.0,0649.4,30.9
2021-01-24T18:33:00Z,00000200,01000000,0000.18,-000.01,0000.24,0000.06,0000.07,0000.07,0000.11,-000.28,0000.24,16.2,22.4,,00.0,0649.3,30.9
2021-01-24T18:34:00Z,00000200,01000000,0000.22,0000.19,0000.15,0000.52,0000.09,0000.05,-000.02,0000.55,0000.14,16.2,22.5,,00.0,0649.3,30.9
2021-01-24T18:35:00Z,00000200,01000000,0000.29,0000.37,0000.06,0000.48,-000.00,0000.08,0000.23,0000.32,0000.15,16.3,22.5,,00.0,0649.3,30.9
2021-01-24T18:36:00Z,00000200,01000000,-000.14,-000.15,0000.19,0000.44,0000.11,-000.04,0000.31,-000.19,-000.06,16.3,22.5,,00.0,0649.3,30.9
2021-01-24T18:37:00Z,00000200,01000000,-000.11,0000.28,-000.00,0000.53,0000.06,0000.02,0000.11,0000.03,-000.06,16.3,22.6,,00.0,0649.3,30.9
2021-01-24T18:38:00Z,00000200,01000000,0000.85,0000.18,0000.21,0000.20,0000.08,0000.09,-000.01,-000.05,0000.14,16.3,22.6,,00.0,0649.3,30.9
2021-01-24T18:39:00Z,00000200,01000000,0000.39,0000.26,-000.01,0000.73,0000.02,-000.14,0000.27,0000.62,-000.03,16.3,22.6,,00.0,0649.3,30.9
2021-01-24T18:40:00Z,00000200,01000000,0000.86,0000.30,0000.48,0000.21,0000.13,0000.08,-000.31,-000.18,0000.09,16.3,22.6,,00.0,0649.3,30.9
2021-01-24T18:41:00Z,00000200,01000000,0000.51,0000.18,0000.05,0000.35,0000.21,-000.10,0000.61,0000.15,0000.31,16.2,22.5,,00.0,0649.3,30.9
2021-01-24T18:42:00Z,00000200,01000000,-000.12,0000.30,0000.24,0000.51,0000.13,0000.07,0000.22,0000.38,0000.23,16.2,22.5,,00.0,0649.3,30.9
2021-01-24T18:43:00Z,00000200,01000000,-000.11,0000.17,0000.13,0000.30,0000.15,0000.02,-000.01,-000.04,-000.06,16.2,22.5,,00.0,0649.3,30.9
2021-01-24T18:44:00Z,00000200,01000000,-000.54,-000.06,0000.16,0000.96,-000.07,0000.15,0000.31,0000.50,0000.58,16.3,22.6,,00.0,0649.3,30.9
2021-01-24T18:45:00Z,00000200,01000000,0000.49,0000.37,0000.18,0000.51,0000.18,-000.15,0000.20,-000.01,-000.00,16.3,22.6,,00.0,0649.3,30.9
2021-01-24T18:46:00Z,00000200,01000000,0000.87,0000.25,0000.05,0000.72,-000.07,0000.04,-000.24,0000.14,-000.15,16.4,22.6,,00.0,0649.3,30.9
2021-01-24T18:47:00Z,00000200,01000000,0000.31,0000.08,0000.29,0000.44,-000.13,-000.07,0000.40,0000.02,0000.10,16.4,22.7,,00.0,0649.4,30.9
2021-01-24T18:48:00Z,00000200,01000000,0000.02,0000.36,0000.16,0000.18,0000.02,-000.20,-000.12,0000.16,0000.06,16.5,22.7,,00.0,0649.4,30.9
2021-01-24T18:49:00Z,00000200,01000000,0000.69,0000.23,0000.12,0001.02,-000.05,-000.18,0000.38,0000.65,0000.21,16.5,22.7,,00.0,0649.4,31.0
2021-01-24T18:50:00Z,00000200,01000000,0000.61,0000.35,0000.29,0001.04,-000.24,-000.10,0000.27,-000.41,0000.17,16.6,22.8,,00.0,0649.4,31.0
2021-01-24T18:51:00Z,00000200,01000000,0000.75,0000.14,0000.22,0000.29,-000.03,-000.01,-000.08,0000.65,0000.13,16.7,22.8,,00.0,0649.5,31.0
2021-01-24T18:52:00Z,00000200,01000000,0000.49,0000.30,0000.11,0000.52,0000.08,-000.17,0000.56,0000.01,0000.08,16.7,22.8,,00.0,0649.5,31.0
2021-01-24T18:53:00Z,00000200,01000000,0000.31,-000.03,0000.15,0000.32,-000.07,-000.04,-000.08,-000.08,0000.39,16.7,22.9,,00.0,0649.6,31.0
2021-01-24T18:54:00Z,00000200,01000000,0001.44,0000.42,0000.45,0000.89,-000.00,0000.04,0007.97,0006.93,0005.48,16.7,22.9,,00.0,0649.6,30.9
2021-01-24T18:55:00Z,00000200,01000000,0001.00,0000.85,0000.59,0000.01,0000.26,0000.30,0010.66,0009.76,0007.44,16.7,22.9,,00.0,0649.7,30.9
2021-01-24T18:56:00Z,00000200,01000000,0001.54,0000.49,0000.33,0000.47,0000.40,0000.03,0007.06,0006.18,0004.87,16.6,22.9,,00.0,0649.7,30.9
2021-01-24T18:57:00Z,00000200,41000000,,,,,,,0003.14,0002.91,0002.00,16.6,22.9,,00.0,0649.6,30.9
2021-01-24T18:58:00Z,00000200,61000000,,,,,,,-000.45,-000.18,-000.20,16.3,23.0,,00.0,0648.8,30.9
2021-01-24T18:59:00Z,00000200,21000000,,,,,,,-000.34,-000.21,-000.64,16.3,23.1,,00.0,0648.8,30.9
